User: anonymous
Location: Chenango Forks
(42.2242°N, 75.8278°W)
Time: 21:39:00
(UTC-04:00)
Language:

Coronas F rocket - Orbit

View from above orbital plane
View from above orbital plane
View from above satellite
View from above satellite

Ground track
Ground track

The orbit data is extracted from the following two-line orbital elements,

1 26874U 01032B   14260.46268132  .00014954  00000-0  22920-3 0  7863
2 26874 082.4701 246.5042 0016778 079.7889 280.5255 15.54004372735622
Epoch (UTC): 17 September 2014 11:06:15
Eccentricity: 0.0016778
inclination: 82.4701°
perigee height: 393 km
apogee height: 416 km
right ascension of ascending node: 246.5042°
argument of perigee: 79.7889°
revolutions per day: 15.54004372
mean anomaly at epoch: 280.5255°
orbit number at epoch: 73562

The dashed part of the orbit path shows where the satellite is in the earth's shadow,  

DLR